Home > Weather > Fall River > Past weeks

Flag for U.S.A. Weather for the Past 2 Weeks in Fall River, Massachusetts, U.S.A.

Now
16 °F

Sunny.


Feels Like: 1 °F
Forecast: 1 / 23 °F
Wind: 16 mph from Northwest

Location: New Bedford Regional Airport

Current Time: Feb 13, 2016 at 5:01:33 PM

Latest Report: Feb 13, 2016 at 3:53 PM


Visibility: 10 mi

Pressure: 29.93 "Hg

Humidity: N/A

Dew point: N/A

Location of Fall RiverLocation

Historic Weather in Fall River — Graph

°F

Fall River Temperature Yesterday

Maximum temperature yesterday: 23 °F (at 5:53 PM)
Minimum temperature yesterday: 8 °F (at 5:53 AM)
Average temperature yesterday: 16 °F

High & Low Weather Summary for the Past Weeks

 TemperatureHumidityPressure
High60 °F (Feb 1, 11:53 AM)100% (Feb 4, 3:04 AM)30.41 "Hg (Feb 4, 3:04 AM)
Low8 °F (Feb 12, 5:53 AM)31% (Feb 1, 5:53 PM)29.39 "Hg (Jan 29, 3:53 PM)
Average34 °F75%29.93 "Hg
* Reported Jan 29 3:53 PM — Feb 13 3:53 PM, Fall River, Weather by CustomWeather, © 2016

Note: Actual official high and low records may vary slightly from our data, if they occured in-between our weather recording intervals... More about our weather records

Advertising

Fall River Weather History for the Previous 24 Hours

 ConditionsComfort  
Time TempWeatherWind HumidityBarometerVisibility
3:53 PM
Sat, Feb 13
16 °FSunny.16 mphN/A29.93 "Hg10 mi
2:53 PM19 °FPartly sunny.15 mph38%29.88 "Hg9 mi
1:53 PM22 °FPassing clouds.23 mph33%29.84 "Hg10 mi
12:53 PM22 °FPartly sunny.21 mph38%29.83 "Hg10 mi
11:53 AM23 °FScattered clouds.16 mph36%29.83 "Hg10 mi
10:53 AM24 °FBroken clouds.14 mph38%29.83 "Hg10 mi
9:53 AM22 °FOvercast.12 mph57%29.82 "Hg10 mi
8:53 AM19 °FMostly cloudy.13 mph74%29.83 "Hg7 mi
7:53 AM18 °FSunny.9 mph71%29.82 "Hg10 mi
6:53 AM16 °FMostly cloudy.6 mph84%29.80 "Hg10 mi
5:53 AM16 °FOvercast.No wind96%29.80 "Hg10 mi
4:53 AM17 °FOvercast.No wind92%29.81 "Hg10 mi
3:53 AM18 °FPassing clouds.3 mph88%29.80 "Hg10 mi
2:53 AM19 °FLight snow. Ice fog.No wind88%29.82 "Hg6 mi
1:53 AM20 °FLight snow. Ice fog.No wind89%29.85 "Hg4 mi
12:56 AM20 °FLight snow. Ice fog.No wind89%29.87 "Hg3 mi
11:53 PM
Fri, Feb 12
20 °FLight snow. Ice fog.No wind89%29.90 "Hg2 mi
10:53 PM21 °FLight snow. Overcast.6 mph68%29.92 "Hg7 mi
9:53 PM22 °FOvercast.5 mph62%29.93 "Hg10 mi
8:53 PM22 °FOvercast.No wind62%29.95 "Hg10 mi
7:53 PM22 °FOvercast.No wind66%29.99 "Hg10 mi
6:53 PM22 °FOvercast.No wind62%30.02 "Hg10 mi
5:53 PM23 °FOvercast.6 mph55%30.04 "Hg10 mi
Weather by CustomWeather, © 2016

See weather overviewHow to use our weather pages